#timestamp,LO_Frequency,Hit,StdDev 
1518962415.2,286047002.5,N
1518962435.9,286046999.7,N
1518962455.7,286047002.5,N
1518962475.6,286047002.8,N
1518962495.4,286046999.9,N
1518962515.3,286047004.3,N
1518962535.1,286047016.7,Y
1518962555.8,286047009.1,P
1518962575.7,286047001.5,N
1518962595.5,286047000.5,N
1518962615.4,286047000.7,N
1518962635.2,286046996.6,N
1518962655.0,286046998.0,N
1518962655.9,286046998.0,N
1518962675.8,286046995.1,N
1518962695.6,286046995.0,N
1518962715.5,286046997.9,N
1518962735.3,286046994.9,N
1518962755.1,286046997.5,N
1518962775.9,286046998.0,N
1518962795.7,286046997.9,N
1518962815.6,286046994.9,N
1518962835.4,286046995.4,N
1518962855.2,286046994.9,N
1518962875.1,286046994.9,N
1518962876.0,286046994.9,N
1518962895.8,286046995.1,N
1518962915.7,286046993.7,N
1518962935.5,286046993.4,N
1518962955.3,286046993.9,N
1518962975.2,286046994.1,N
1518962995.0,286046994.1,N
1518962995.9,286046994.1,N
1518963015.7,286046994.6,N
1518963035.6,286046991.7,N
1518963055.4,286046994.3,N
1518963075.3,286046996.0,N
1518963095.1,286046993.6,N
1518963115.8,286046994.5,N
1518963135.7,286046993.5,Y
1518963155.5,286046999.2,P
1518963175.4,286046997.3,N
1518963195.2,286046996.9,N
1518963215.0,286046998.8,N
1518963215.9,286046998.8,N
1518963235.8,286046999.2,N
1518963255.6,286046996.8,N
1518963275.5,286046996.7,N
1518963325.3,286046997.9,E
1518963335.2,286046997.0,N
1518963355.1,286046997.2,P
1518963356.0,286046997.2,P
1518963375.8,286046996.9,Y
1518963395.7,286047001.5,P
1518963415.5,286047001.6,N
1518963435.3,286047001.9,N
1518963455.2,286047002.5,N
1518963475.0,286047002.3,N
1518963475.9,286047002.3,N
1518963495.8,286047000.1,N
1518963515.6,286047002.4,N
1518963535.4,286046999.8,N
1518963555.3,286047000.1,N
1518963575.1,286047000.2,N
1518963595.8,286047000.0,N
1518963615.7,286047000.0,N
1518963635.5,286047000.3,N
1518963655.4,286047002.2,N
1518963675.2,286047002.6,N
1518963695.0,286047002.8,N
1518963695.9,286047002.8,N
1518963715.8,286047002.7,N
1518963735.6,286047000.5,N
1518963755.4,286047001.1,N
1518963775.3,286047000.1,N
1518963795.1,286046998.5,N
1518963815.9,286046998.1,N
1518963835.7,286046998.8,N
1518963855.5,286046999.3,N
1518963875.4,286046999.4,N
1518963895.2,286046999.2,N
1518963915.0,286046998.4,N
1518963916.0,286046998.4,N
1518963935.8,286046998.2,N
1518963955.6,286046998.7,N
1518963975.5,286046999.4,N
1518963995.3,286046996.5,N
1518964015.1,286046996.6,N
1518964035.9,286046997.2,N
1518964055.7,286046996.7,N
1518964075.6,286046996.9,N
1518964095.4,286046997.8,N
1518964115.2,286046997.3,N
1518964135.1,286046997.8,N
1518964136.0,286046997.8,N
1518964155.8,286046997.5,N
1518964175.6,286046996.4,N
1518964195.5,286046996.0,N
1518964215.3,286046995.9,N
1518964235.2,286046996.3,N
1518964255.0,286046995.7,N
1518964255.9,286046995.7,N
1518964275.7,286046996.1,N
1518964295.6,286046995.5,Y
1518964315.4,286046996.9,P
1518964335.3,286046999.4,N
1518964355.1,286046996.5,P
1518964375.8,286046996.5,Y
1518964395.7,286047000.8,P
1518964415.5,286047000.9,N
1518964435.4,286047000.8,N
1518964455.2,286047000.7,N
1518964475.0,286046998.8,N
1518964475.9,286046998.8,N
1518964495.8,286046999.3,N
1518964515.6,286046998.4,N
1518964535.5,286046998.2,N
1518964555.3,286046998.1,N
1518964575.1,286047000.7,N
1518964595.9,286046999.9,N
1518964615.7,286047000.8,N
1518964635.5,286046998.7,N
1518964655.4,286047001.2,N
1518964675.2,286047000.0,N
1518964695.1,286047001.0,N
1518964696.0,286047001.0,N
1518964715.8,286047000.9,N
1518964735.6,286047000.2,N
1518964755.5,286047000.3,N
1518964775.3,286047000.9,N
1518964795.1,286046998.2,N
1518964815.9,286046998.2,N
1518964835.7,286046998.2,N
1518964855.6,286046998.2,N
1518964875.4,286046998.5,N
1518964895.2,286046998.5,N
1518964915.1,286046999.4,N
1518964916.0,286046999.4,N
1518964935.8,286046998.9,N
1518964955.6,286046998.5,N
1518964975.5,286046998.4,N
1518964995.3,286046998.8,N
1518965015.2,286047001.1,N
1518965035.9,286046998.6,N
1518965055.7,286046999.0,N
1518965075.6,286046998.9,N
1518965095.4,286046998.9,N
1518965115.2,286046999.3,N
1518965135.1,286046999.0,N
1518965136.0,286046999.0,N
1518965155.8,286046999.1,N
1518965175.7,286046999.2,N
1518965195.5,286046998.2,N
1518965215.3,286047000.3,N
1518965235.2,286047000.2,N
1518965255.0,286047000.3,N
1518965255.9,286047000.3,N
1518965275.8,286047001.0,N
1518965295.6,286047000.6,N
1518965315.4,286047000.4,N
1518965335.3,286047000.7,N
1518965355.1,286047000.9,N
1518965375.8,286047000.8,N
1518965395.7,286046998.5,N
1518965415.5,286047001.2,N
1518965435.4,286046998.3,N
1518965455.2,286047000.0,N
1518965475.0,286046999.8,N
1518965475.9,286046999.8,N
1518965495.8,286047000.1,N
1518965515.6,286047002.3,N
1518965535.4,286047001.4,N
1518965555.3,286047001.5,N
1518965575.1,286047002.3,N
1518965595.9,286047002.3,N
1518965615.7,286047002.7,N
1518965635.5,286047000.6,N
1518965655.4,286046999.9,N
1518965675.2,286047002.2,N
1518965695.0,286047003.5,N
1518965695.9,286047003.5,N
1518965715.8,286047001.6,N
1518965735.6,286047001.4,N
1518965755.5,286047003.9,Y
1518965775.3,286047000.1,P
1518965795.1,286047002.1,P
1518965815.9,286047002.8,P
1518965835.7,286046999.7,N
1518965855.6,286047002.7,N
1518965875.4,286047002.1,N
1518965895.2,286047001.7,N
1518965915.1,286047001.8,N
1518965916.0,286047001.8,N
1518965935.8,286047001.7,N
1518965955.6,286047004.2,Y
1518965975.5,286047002.4,P
1518965995.3,286047002.3,P
